Location: Newark
(27.9675°N, 86.8869°E)
Time: 20:19:49
(UTC+00:00)

Courier 1B Rocket - Pass Details

Date: 16 October 2019
Orbit: 920 x 1202 km, 28.2° (Epoch: 19 November)

Event Time Altitude Azimuth Distance (km) Brightness Sun altitude
Rises 21:05:11 0° 227° (SW) 3,555 - -42.1°
Reaches altitude 10° 21:08:01 10° 219° (SW) 2,602 - -41.5°
Maximum altitude 21:13:33 34° 155° (SSE) 1,461 - -40.3°
Exits shadow 21:16:07 25° 114° (ESE) 1,777 6.7 -39.8°
Drops below altitude 10° 21:19:10 10° 92° (E) 2,639 7.9 -39.1°
Sets 21:22:03 0° 84° (E) 3,612 8.9 -38.5°
